FLOCK 3P-44 (42033 NORAD) Tracking and Keplerian Element Data

This shows tracking and keplerian element data for the satellite.

Feedback or suggestion? Click here.




ElementValue
Catalog42033
NameFLOCK 3P-44
Epoch Orbit17580
Epoch Day114.74116851
Epoch Year2020
RAAN183.0973
Inclination97.3683
Eccentricity0.0008566
Argument of Perigee139.0615
Mean Anonmoly221.1269
Mean Motion15.26463466
Decay Rate3.243E-05
L11 42033U 17008CP 20114.74116851 .00003243 00000-0 12709-3 0 9993
L22 42033 97.3683 183.0973 0008566 139.0615 221.1269 15.26463466175808

Live tracking and technical data element details for FLOCK 3P-44 (NORAD 42033). FLOCK 3P-44 can be tracked NOW for your location showing map with azimuth and elevation plus other details from your city location.

Track the satellite on the map from your city or location and see movement details for azimuth, elevation, latitude, longitude, range, height, and movement on the map or in text.







IsCatalogInMostPopularTable: catalog: 42033, numindb: 678
Update: records affected: 1



GetName: 42033 FLOCK 3P-44

Hit Count: updated at: Mon, 10 Aug 2020 22:03:07 GMT